User: anonymous   Login
Location: Unspecified
(0.0000°N, 0.0000°E)
Time: 20:28:14
(UTC+00:00)
Language:

M3MSAT - Orbit

View from above orbital plane
View from above orbital plane
View from above satellite
View from above satellite

Ground track
Ground track

The orbit data is extracted from the following two-line orbital elements,

1 41605U 16040G   22268.05562940  .00004903  00000-0  20296-3 0  9996
2 41605  97.2014 306.5900 0012262 149.9055 210.2890 15.24313307347500
Epoch (UTC): 25 September 2022 01:20:06
Eccentricity: 0.0012262
inclination: 97.2014°
perigee height: 484 km
apogee height: 501 km
right ascension of ascending node: 306.5900°
argument of perigee: 149.9055°
revolutions per day: 15.24313307
mean anomaly at epoch: 210.2890°
orbit number at epoch: 34750

The dashed part of the orbit path shows where the satellite is in the earth's shadow,  

DLR